Regional Weather Roundup
Issued by NWS

Home | Current Version | Previous Version | Text Only | Print | Product List | Glossary Off
Versions: 1 2 3 4 5 6 7 8 9 10 11 12 13 14 15 16 17 18 19 20 21 22 23 24 25 26 27 28 29 30 31 32 33 34 35 36 37 38 39 40 41 42 43 44 45 46 47 48 49 50

000
ASUS43 KOAX 200402
RWRNE

WEATHER ROUNDUP FOR NEBRASKA
NATIONAL WEATHER SERVICE OMAHA NE
1100 PM CDT THU APR 19 2018

NOTES: SATELLITE DATA IS BEING USED TO AUGMENT CLOUD COVER ABOVE
       12000 FEET.
       "FAIR" INDICATES FEW OR NO CLOUDS BELOW 12,000 FEET WITH NO
       SIGNIFICANT WEATHER AND/OR OBSTRUCTIONS TO VISIBILITY.


NEZ001>004-019>022-054>056-200500-
NEBRASKA PANHANDLE

CITY           SKY/WX    TMP DP  RH WIND       PRES   REMARKS
SCOTTSBLUFF    CLOUDY    49  29  46 SE24G37   30.10R
ALLIANCE       CLOUDY    45  27  49 SE28G36   30.13S
CHADRON        CLOUDY    50  28  42 SE17G25   30.13S
GORDON         FAIR      45  31  56 SE14      30.19S
KIMBALL        MOCLDY    46  27  46 SE22G29   30.09R
SIDNEY         CLOUDY    45  27  49 SE22      30.13R
$$

NEZ057>060-069>072-079>082-200500-
SOUTHWEST NEBRASKA

CITY           SKY/WX    TMP DP  RH WIND       PRES   REMARKS
NORTH PLATTE   CLOUDY    41  29  62 SE10      30.26R
IMPERIAL       CLOUDY    46  26  45 E21       30.20R
LEXINGTON      CLOUDY    45  28  51 E10       30.30F
MCCOOK         MOCLDY    45  28  51 E13       30.26R
OGALLALA       CLOUDY    47  27  45 SE15      30.21S
$$

NEZ005>010-023>029-035>040-094-200500-
NORTH CENTRAL NEBRASKA

CITY           SKY/WX    TMP DP  RH WIND       PRES   REMARKS
VALENTINE      MOCLDY    42  30  62 E9        30.30R
AINSWORTH      MOCLDY    37  32  82 E8        30.31S WCI  31
BROKEN BOW     MOCLDY    43  27  53 E12       30.31S
O`NEILL        PTCLDY    40  30  66 E8        30.36S WCI  34
ORD            MOCLDY    34  24  67 CALM      30.33S
THEDFORD       MOCLDY    44  30  58 SE10      30.28S
$$

NEZ041-046>049-061>064-073>077-083>087-200500-
SOUTH CENTRAL NEBRASKA

CITY           SKY/WX    TMP DP  RH WIND       PRES   REMARKS
GRAND ISLAND   PTCLDY    42  28  57 SE6       30.36R
AURORA         CLOUDY    38  24  57 E7        30.36R WCI  33
HASTINGS       CLOUDY    45  27  49 SE7       30.35R
HEBRON         CLOUDY    40  26  59 CALM      30.36S
HOLDREGE       CLOUDY    37  29  72 E9        30.31F WCI  31
KEARNEY        CLOUDY    42  27  55 SE9       30.34R
YORK             N/A     39  27  60 CALM      30.37R
$$

NEZ011>018-030>034-042>045-200500-
NORTHEAST NEBRASKA

CITY           SKY/WX    TMP DP  RH WIND       PRES   REMARKS
NORFOLK        CLOUDY    38  33  82 E7        30.38R WCI  33
ALBION         CLOUDY    39  27  62 CALM      30.37S
BLAIR          CLEAR     43  29  58 NE9       30.40R
COLUMBUS       CLOUDY    38  28  67 E5        30.39R WCI  34
FREMONT        CLEAR     46  30  55 E7        30.40R
TEKAMAH        CLEAR     41  30  65 E9        30.41R
WAYNE          CLEAR     37  32  84 E7        30.41R WCI  31
$$

NEZ050>053-065>068-078-088>093-200500-
SOUTHEAST NEBRASKA

CITY           SKY/WX    TMP DP  RH WIND       PRES   REMARKS
LINCOLN        CLEAR     47  27  45 CALM      30.39R
OMAHA EPPLEY   CLEAR     47  26  44 E12       30.40R
BEATRICE       CLEAR     46  28  50 E3        30.37S
FALLS CITY     CLOUDY    45  26  47 E5        30.39R
NEBRASKA CITY  CLEAR     48  29  48 SE5       30.39S
PLATTSMOUTH    CLEAR     45  27  49 E8        30.39S HAZE
$$

NEZ044-045-051>053-067-200500-
OMAHA AREA

CITY           SKY/WX    TMP DP  RH WIND       PRES   REMARKS
OMAHA EPPLEY   CLEAR     47  26  44 E12       30.40R
BLAIR          CLEAR     43  29  58 NE9       30.40R
FREMONT        CLEAR     46  30  55 E7        30.40R
MILLARD        CLEAR     48  28  46 CALM      30.40R
OFFUTT AFB     CLEAR     41  26  55 E7        30.39R
PLATTSMOUTH    CLEAR     45  27  49 E8        30.39S HAZE
WAHOO          FAIR      40  25  54 CALM      30.39R
$$




USA.gov is the U.S. government's official web portal to all federal, state and local government web resources and services.